Torna al catalogo

STARLINK-34882

AttivoComunicazioniVLEO
NORAD 66227·PAYLOAD·🇺🇸 United States

Lanciato Oct 28, 2025 da Vandenberg Space Force Base

Loading…

Prossimi Passaggi (prossime 24 ore)

TLE

AggiornatoSource: CelesTrak SupGP

Epoca: Sep 15, 2026, 03:59 UTC

1 66227C 25244X   26258.16645833 -.00016177  00000+0 -47805-3 0  2587
2 66227  53.1581  66.5509 0001137  93.3780 322.6399 15.34393016    11

Traccia STARLINK-34882 in tempo reale con AllMySat

Download on the App Store